Location: アルンシュタイン
(50.0000°N, 10.0000°E)
Time: 17:51:45
(UTC+02:00)

Vanguard 2 Rocket - Visible Passes

Search period start: 11 September 2024 00:00
Search period end: 21 September 2024 00:00
Orbit: 553 x 3301 km, 32.9° (Epoch: 10 September)

Date Brightness Start Highest point End Pass type
(mag) Time Alt. Az. Time Alt. Az. Time Alt. Az.
11 Sep 9.9 02:29:34 21° SE 02:30:33 21° SE 02:41:41 10° E visible
11 Sep 9.6 04:35:03 23° SSW 04:43:37 39° SSE 05:00:42 10° ESE visible
12 Sep 10.3 01:29:54 12° ESE 01:29:54 12° ESE 01:33:02 10° ESE visible
12 Sep 9.5 03:35:24 29° S 03:39:30 33° SSE 03:54:42 10° E visible
12 Sep 9.9 05:40:52 13° WSW 05:53:51 44° S 06:11:52 10° ESE visible
13 Sep 9.7 02:35:44 25° SE 02:35:56 25° SE 02:48:09 10° E visible
13 Sep 9.5 04:41:13 24° SW 04:49:16 41° SSE 05:06:25 10° ESE visible
14 Sep 10.1 01:36:04 15° ESE 01:36:04 15° ESE 01:40:46 10° ESE visible
14 Sep 9.3 03:41:33 32° S 03:45:05 36° SSE 04:00:31 10° ESE visible
14 Sep 9.8 05:47:02 13° WSW 05:59:33 42° S 06:17:17 10° ESE visible
15 Sep 9.6 02:41:54 29° SSE 02:41:54 29° SSE 02:54:14 10° E visible
15 Sep 9.4 04:47:23 25° SW 04:54:58 41° S 05:11:56 10° ESE visible
16 Sep 10.0 01:42:15 18° ESE 01:42:15 18° ESE 01:47:29 10° ESE visible
16 Sep 9.2 03:47:45 34° S 03:50:46 37° SSE 04:06:09 10° ESE visible
16 Sep 9.8 05:53:14 12° WSW 06:05:15 39° S 06:22:26 10° SE visible
17 Sep 9.4 02:48:08 31° SSE 02:48:08 31° SSE 03:00:04 10° ESE visible
17 Sep 9.3 04:53:37 25° SW 05:00:44 40° S 05:17:14 10° ESE visible
18 Sep 9.9 01:48:32 19° ESE 01:48:32 19° ESE 01:53:41 10° ESE visible
18 Sep 9.1 03:54:02 35° SSW 03:56:32 37° S 04:11:35 10° ESE visible
18 Sep 9.8 05:59:31 12° WSW 06:10:56 35° SSW 06:27:14 10° SE visible
19 Sep 9.4 02:54:28 32° SSE 02:54:28 32° SSE 03:05:40 10° ESE visible
19 Sep 9.3 04:59:58 25° SW 05:06:30 37° S 05:22:15 10° SE visible
20 Sep 9.9 01:54:56 19° ESE 01:54:56 19° ESE 01:59:35 10° ESE visible
20 Sep 9.1 04:00:26 35° SSW 04:02:21 36° S 04:16:48 10° ESE visible
20 Sep 9.8 06:05:57 11° WSW 06:16:37 30° SSW 06:31:34 10° SSE visible
